Radiation Dose measured at exhaust stack monitor of Fukushima Daiichi Nuclear Power Station
Date,Time,Unit 5 6 shared exhaust cylinders,Wind Direction,Wind Velocity(m/s)
2021/06/08,00:00,3.9,east-southeast,1.2
2021/06/08,00:10,3.9,east-southeast,1.4
2021/06/08,00:20,3.9,-,CALM
2021/06/08,00:30,4.1,northwest,1.2
2021/06/08,00:40,3.8,west-northwest,1.4
2021/06/08,00:50,3.9,west,1.2
2021/06/08,01:00,3.9,west,1.5
2021/06/08,01:10,3.8,southwest,0.8
2021/06/08,01:20,3.8,west-southwest,1.2
2021/06/08,01:30,3.9,west-northwest,1.2
2021/06/08,01:40,3.8,west,2.2
2021/06/08,01:50,3.9,west-southwest,2.5
2021/06/08,02:00,3.9,west-southwest,1.9
2021/06/08,02:10,3.7,south-southeast,1.7
2021/06/08,02:20,4.0,south,1.5
2021/06/08,02:30,3.9,southeast,2.5
2021/06/08,02:40,4.0,southeast,2.0
2021/06/08,02:50,3.8,east-southeast,1.7
2021/06/08,03:00,3.8,southeast,2.6
2021/06/08,03:10,4.0,southeast,2.8
2021/06/08,03:20,3.7,southeast,3.8
2021/06/08,03:30,3.9,southeast,3.8
2021/06/08,03:40,3.9,southeast,2.9
2021/06/08,03:50,3.9,southeast,2.3
2021/06/08,04:00,4.0,southeast,2.9
2021/06/08,04:10,3.8,south-southeast,2.5
2021/06/08,04:20,3.7,south-southeast,2.3
2021/06/08,04:30,3.8,south-southeast,2.6
2021/06/08,04:40,3.9,south-southeast,2.6
2021/06/08,04:50,3.8,south,2.5
2021/06/08,05:00,4.0,south-southeast,2.0
2021/06/08,05:10,3.9,south-southeast,2.0
2021/06/08,05:20,3.9,south,1.7
2021/06/08,05:30,4.0,south,1.7
2021/06/08,05:40,3.9,south,1.4
2021/06/08,05:50,3.8,south,1.7
2021/06/08,06:00,3.8,south-southeast,2.0
2021/06/08,06:10,3.9,south-southwest,1.4
2021/06/08,06:20,3.8,south-southwest,1.7
2021/06/08,06:30,3.7,south-southwest,1.5
2021/06/08,06:40,3.9,west-southwest,0.9
2021/06/08,06:50,3.9,west,1.2
2021/06/08,07:00,3.8,west,0.6
2021/06/08,07:10,3.9,-,CALM
2021/06/08,07:20,4.0,west,0.8
2021/06/08,07:30,3.8,south-southeast,0.8
2021/06/08,07:40,3.9,south-southeast,0.9
2021/06/08,07:50,4.0,south,1.2
2021/06/08,08:00,4.0,southeast,1.5
2021/06/08,08:10,4.1,east-southeast,1.5
2021/06/08,08:20,3.8,east-southeast,2.0
2021/06/08,08:30,3.9,southeast,1.5
2021/06/08,08:40,3.8,southeast,2.0
2021/06/08,08:50,3.8,east-southeast,1.7
2021/06/08,09:00,3.9,southeast,1.5
2021/06/08,09:10,3.9,east-southeast,2.0
2021/06/08,09:20,3.8,east-southeast,1.9
2021/06/08,09:30,4.1,southeast,2.0
2021/06/08,09:40,3.9,south-southeast,2.0
2021/06/08,09:50,3.9,-,CALM
2021/06/08,10:00,4.0,south-southeast,1.1
2021/06/08,10:10,3.9,south-southeast,1.4
2021/06/08,10:20,4.0,south-southeast,0.9
2021/06/08,10:30,3.9,south,0.8
2021/06/08,10:40,4.0,south-southeast,1.4
2021/06/08,10:50,3.9,south,1.2
2021/06/08,11:00,3.8,south-southwest,1.4
2021/06/08,11:10,4.0,-,CALM
2021/06/08,11:20,3.8,south-southwest,0.6
2021/06/08,11:30,3.8,south,1.4
2021/06/08,11:40,3.9,south-southwest,1.5
2021/06/08,11:50,3.9,south-southwest,1.7
2021/06/08,12:00,3.8,south-southwest,0.6
2021/06/08,12:10,3.7,northwest,0.6
2021/06/08,12:20,3.9,-,CALM
2021/06/08,12:30,3.8,-,CALM
2021/06/08,12:40,3.9,-,CALM
2021/06/08,12:50,3.8,northeast,0.6
2021/06/08,13:00,3.9,east-northeast,1.1
2021/06/08,13:10,3.8,northeast,1.5
2021/06/08,13:20,4.0,northeast,0.9
2021/06/08,13:30,3.9,-,CALM
2021/06/08,13:40,3.8,south-southeast,0.6
2021/06/08,13:50,3.9,southwest,0.9
2021/06/08,14:00,3.9,southwest,0.6
2021/06/08,14:10,4.0,southwest,1.2
2021/06/08,14:20,3.9,south-southwest,0.6
2021/06/08,14:30,4.0,-,CALM
2021/06/08,14:40,3.9,-,CALM
2021/06/08,14:50,3.9,south-southwest,0.6
2021/06/08,15:00,3.7,southwest,0.6
2021/06/08,15:10,3.7,-,CALM
2021/06/08,15:20,3.9,south-southeast,0.6
2021/06/08,15:30,4.0,south-southwest,1.2
2021/06/08,15:40,3.8,south-southwest,1.4
2021/06/08,15:50,4.0,southwest,1.2
2021/06/08,16:00,3.9,west-southwest,1.7
2021/06/08,16:10,3.9,west-southwest,1.9
2021/06/08,16:20,3.9,west-northwest,2.2
2021/06/08,16:30,3.8,north-northwest,3.3
2021/06/08,16:40,3.9,north,4.2
2021/06/08,16:50,3.9,north,5.0
2021/06/08,17:00,3.8,north,3.8
2021/06/08,17:10,3.8,north,4.9
2021/06/08,17:20,3.8,north,4.0
2021/06/08,17:30,4.0,north,3.5
2021/06/08,17:40,4.0,northwest,2.2
2021/06/08,17:50,4.0,northwest,2.0
2021/06/08,18:00,4.1,west,0.9
2021/06/08,18:10,4.0,west,1.1
2021/06/08,18:20,3.8,west,2.3
2021/06/08,18:30,3.9,-,CALM
2021/06/08,18:40,3.8,east,1.2
2021/06/08,18:50,4.0,east-southeast,1.4
2021/06/08,19:00,3.9,east-southeast,1.4
2021/06/08,19:10,3.9,south-southwest,0.6
2021/06/08,19:20,3.9,west-southwest,2.2
2021/06/08,19:30,3.7,west,2.5
2021/06/08,19:40,3.8,west-northwest,2.3
2021/06/08,19:50,3.9,west-northwest,1.9
2021/06/08,20:00,3.9,west,2.0
2021/06/08,20:10,3.9,west,2.6
2021/06/08,20:20,3.7,west-southwest,2.8
2021/06/08,20:30,3.9,southwest,2.3
2021/06/08,20:40,3.9,south,2.9
2021/06/08,20:50,3.9,south-southwest,3.2
2021/06/08,21:00,4.0,west-southwest,2.5
2021/06/08,21:10,4.0,west,2.3
2021/06/08,21:20,3.9,west,2.2
2021/06/08,21:30,3.9,west-northwest,2.6
2021/06/08,21:40,4.0,west-southwest,2.6
2021/06/08,21:50,3.8,west-southwest,2.6
2021/06/08,22:00,3.9,west-northwest,3.2
2021/06/08,22:10,3.9,west-southwest,2.6
2021/06/08,22:20,3.9,west,2.9
2021/06/08,22:30,4.0,west,3.4
2021/06/08,22:40,3.8,west,2.2
2021/06/08,22:50,4.0,west-southwest,2.3
2021/06/08,23:00,3.9,southwest,2.0
2021/06/08,23:10,3.8,west-southwest,2.3
2021/06/08,23:20,3.7,west,2.5
2021/06/08,23:30,3.8,west,2.2
2021/06/08,23:40,3.8,west,4.1
2021/06/08,23:50,3.9,west,4.7
